Time,TemperatureF,DewpointF,PressureIn,WindDirection,WindDirectionDegrees,WindSpeedMPH,WindSpeedGustMPH,Humidity,HourlyPrecipIn,Conditions,Clouds,dailyrainin,SoftwareType,DateUTC
2013-10-01 21:10:00,63.6,60.8,29.90,North,-999,-999.0,-999.0,90,0.00,,,-99.98,tws,2013-10-02 01:10:00,
2013-10-01 21:15:00,63.4,60.9,29.90,North,-999,-999.0,-999.0,91,0.00,,,-99.98,tws,2013-10-02 01:15:00,
2013-10-01 21:20:00,63.2,61.0,29.90,North,-999,-999.0,-999.0,92,0.00,,,-99.98,tws,2013-10-02 01:20:00,
2013-10-01 21:25:00,62.9,61.1,29.90,North,-999,-999.0,-999.0,93,0.00,,,-99.98,tws,2013-10-02 01:25:00,
2013-10-01 21:30:00,62.7,61.1,29.91,North,-999,-999.0,-999.0,94,0.00,,,-99.98,tws,2013-10-02 01:30:00,
2013-10-01 21:35:00,62.5,61.0,29.91,North,-999,-999.0,-999.0,94,0.00,,,-99.98,tws,2013-10-02 01:35:00,
2013-10-01 21:40:00,62.3,60.8,29.90,North,-999,-999.0,-999.0,94,0.00,,,-99.98,tws,2013-10-02 01:40:00,
2013-10-01 21:45:00,62.2,60.8,29.90,North,-999,-999.0,-999.0,95,0.00,,,-99.98,tws,2013-10-02 01:45:00,
2013-10-01 21:50:00,62.0,60.6,29.90,North,-999,-999.0,-999.0,95,0.00,,,-99.98,tws,2013-10-02 01:50:00,
2013-10-01 21:55:00,61.7,60.6,29.90,North,-999,-999.0,-999.0,96,0.00,,,-99.98,tws,2013-10-02 01:55:00,
2013-10-01 22:00:00,61.4,60.5,29.91,North,-999,-999.0,-999.0,96,0.00,,,-99.98,tws,2013-10-02 02:00:00,
2013-10-01 22:05:00,61.2,60.4,29.91,North,-999,-999.0,-999.0,96,0.00,,,-99.98,tws,2013-10-02 02:05:00,
2013-10-01 22:10:00,61.2,60.4,29.91,North,-999,-999.0,-999.0,97,0.00,,,-99.98,tws,2013-10-02 02:10:00,
2013-10-01 22:15:00,61.1,60.3,29.91,North,-999,-999.0,-999.0,96,99.99,,,99.99,tws,2013-10-02 02:15:00,
2013-10-01 22:20:00,60.9,60.0,29.91,North,-999,-999.0,-999.0,96,0.00,,,99.99,tws,2013-10-02 02:20:00,
2013-10-01 22:25:00,60.7,59.8,29.92,North,-999,-999.0,-999.0,96,0.00,,,99.99,tws,2013-10-02 02:25:00,
2013-10-01 22:30:00,60.3,59.7,29.92,North,-999,-999.0,-999.0,97,0.00,,,99.99,tws,2013-10-02 02:30:00,
2013-10-01 22:40:00,60.0,59.5,29.92,North,-999,-999.0,-999.0,98,0.00,,,99.99,tws,2013-10-02 02:40:00,
2013-10-01 22:45:00,59.9,59.5,29.92,North,-999,-999.0,-999.0,98,0.00,,,99.99,tws,2013-10-02 02:45:00,
2013-10-01 22:50:00,59.8,59.4,29.92,North,-999,-999.0,-999.0,98,0.00,,,99.99,tws,2013-10-02 02:50:00,
2013-10-01 22:55:00,59.6,59.3,29.92,North,-999,-999.0,-999.0,98,0.00,,,99.99,tws,2013-10-02 02:55:00,
2013-10-01 23:00:00,59.4,59.2,29.92,North,-999,-999.0,-999.0,99,0.00,,,99.99,tws,2013-10-02 03:00:00,
2013-10-01 23:05:00,59.3,59.0,29.92,North,-999,-999.0,-999.0,98,0.00,,,99.99,tws,2013-10-02 03:05:00,
2013-10-01 23:10:00,59.3,59.1,29.92,North,-999,-999.0,-999.0,99,0.00,,,99.99,tws,2013-10-02 03:10:00,
2013-10-01 23:15:00,59.3,59.1,29.92,North,-999,-999.0,-999.0,99,0.00,,,99.99,tws,2013-10-02 03:15:00,
2013-10-01 23:20:00,59.1,58.9,29.92,North,-999,-999.0,-999.0,99,0.00,,,99.99,tws,2013-10-02 03:20:00,
2013-10-01 23:25:00,59.0,58.7,29.92,North,-999,-999.0,-999.0,99,0.00,,,99.99,tws,2013-10-02 03:25:00,
2013-10-01 23:30:00,58.8,58.6,29.92,North,-999,-999.0,-999.0,99,0.00,,,99.99,tws,2013-10-02 03:30:00,
2013-10-01 23:35:00,58.7,58.4,29.92,North,-999,-999.0,-999.0,99,0.00,,,99.99,tws,2013-10-02 03:35:00,
2013-10-01 23:40:00,58.5,58.3,29.93,North,-999,-999.0,-999.0,99,0.00,,,99.99,tws,2013-10-02 03:40:00,
2013-10-01 23:45:00,-999.8,-99.9,29.93,North,-999,-999.0,-999.0,99,0.00,,,99.99,tws,2013-10-02 03:45:00,
2013-10-01 23:50:00,-999.8,-99.9,29.93,North,-999,-999.0,-999.0,99,0.00,,,99.99,tws,2013-10-02 03:50:00,
2013-10-01 23:55:00,-999.8,-99.9,3.94,North,-999,-999.0,-999.0,100,0.00,,,99.99,tws,2013-10-02 03:55:00,